Regional Weather Roundup
Issued by NWS

Home | Current Version | Previous Version | Text Only | Print | Product List | Glossary On
Versions: 1 2 3 4 5 6 7 8 9 10 11 12 13 14 15 16 17 18 19 20 21 22 23 24 25 26 27
000
ASUS46 KSEW 280910
RWRWA

WASHINGTON REGIONAL WEATHER ROUNDUP
NATIONAL WEATHER SERVICE SEATTLE WA
200 AM PDT FRI APR 28 2017

NOTE:"FAIR" INDICATES FEW OR NO CLOUDS BELOW 12,000 FEET WITH NO
SIGNIFICANT WEATHER AND/OR OBSTRUCTIONS TO VISIBILITY.

WAZ507-509-555>559-281000-
SEATTLE, TACOMA, EVERETT, AND VICINITY

CITY           SKY/WX    TMP DP  RH WIND       PRES   REMARKS
EVERETT        CLOUDY    46  38  73 VRB3      30.23R
BOEING FIELD   MOCLDY    48  40  73 SW3       30.24R
RENTON         CLOUDY    49  40  71 S5        30.24R
SEATAC AIRPORT CLOUDY    45  41  86 S8        30.23R
JBLM-MCCHORD   PTCLDY    43  43  99 SE3       30.24R
PUYALLUP         N/A     43  43 100 CALM      30.24R
BREMERTON      NOT AVBL
JBLM-FT LEWIS  MOCLDY    42  39  91 S2        30.27R
TACOMA NARROWS CLEAR     42  40  92 S3        30.24S
$$

WAZ001-503-506-510-514-515-281000-
NORTH INTERIOR

CITY           SKY/WX    TMP DP  RH WIND       PRES   REMARKS
BELLINGHAM     CLOUDY    46  41  82 SE5       30.20R
FRIDAY HARBOR  MOCLDY    40  38  93 CALM      30.23R
EASTSOUND      PTCLDY    43  39  87 S6        30.20R
PORT ANGELES   CLEAR     42  34  73 W10       30.23R
EDIZ HOOK      FAIR      46  37  71 SW9       30.23S
PORT TOWNSEND  MOCLDY    41  36  81 CALM      30.23R
NAS WHIDBEY    MOCLDY    49  41  74 W14       30.26R
ARLINGTON      MOCLDY    43  34  70 CALM      30.25R
BURLINGTON     MOCLDY    41  39  93 CALM      30.22S
$$

WAZ020-022-039-040-504-511-512-281000-
SOUTHWEST INTERIOR

CITY           SKY/WX    TMP DP  RH WIND       PRES   REMARKS
SHELTON        CLEAR     39  35  86 CALM      30.22R
OLYMPIA        MOCLDY    40  37  89 CALM      30.24R
CHEHALIS       FAIR      37  37 100 CALM      30.25R
KELSO          CLOUDY    43  40  89 CALM      30.27R
VANCOUVER      MOCLDY    41  40  96 CALM      30.27R
SCAPPOOSE, OR  CLEAR     38  37  97 CALM      30.27R
PORTLAND, OR   MOCLDY    42  37  82 W5        30.27R
$$

WAZ021-516-517-281000-
WASHINGTON COAST

CITY           SKY/WX    TMP DP  RH WIND       PRES   REMARKS
FORKS          LGT RAIN  43  42  97 CALM      30.25R
HOQUIAM        MOCLDY    44  40  85 NW3       30.26R
ASTORIA, OR    MOCLDY    42  39  89 S5        30.27R
$$

WAZ019-023-024-040-567>569-281000-
CASCADE MOUNTAINS AND COLUMBIA GORGE

CITY           SKY/WX    TMP DP  RH WIND       PRES   REMARKS
STAMPEDE PASS  SNOW      30  30 100 VRB6      30.09S VSB 1/4
TROUTDALE, OR  PTCLDY    44  38  79 CALM      30.27R
THE DALLES, OR CLEAR     45  32  60 NW8       30.17S
$$

WAZ026-027-041>044-520-521-281000-
EAST SLOPES

CITY           SKY/WX    TMP DP  RH WIND       PRES   REMARKS
OMAK           MOCLDY    42  29  59 N9        30.03R
WENATCHEE      MOCLDY    45  26  47 W13       30.07R
ELLENSBURG     CLEAR     41  29  62 NW26G35   30.06R
YAKIMA         CLEAR     48  29  47 VRB7G21   30.09R
SUNNYSIDE ARPT SUNNY     39  31  73 CALM      30.09S
$$

WAZ028-034-035-281000-
COLUMBIA BASIN

CITY           SKY/WX    TMP DP  RH WIND       PRES   REMARKS
EPHRATA        CLOUDY    49  23  36 NW20G25   29.99S
MOSES LAKE     CLOUDY    47  27  45 NW10      30.02R
PASCO          CLEAR     42  31  64 SW5       30.09R
HERMISTON, OR  CLEAR     44  36  73 SW14G24   30.10R
$$

WAZ036>038-281000-
NORTHEAST WASHINGTON

CITY           SKY/WX    TMP DP  RH WIND       PRES   REMARKS
SPOKANE GEIGER MOCLDY    42  31  64 CALM      29.96R
SPOKANE FELTS  PTCLDY    41  38  89 CALM      29.97R
FAIRCHILD AFB  CLEAR     38  31  77 CALM      29.95R
COEURDALENE,ID MOCLDY    42  36  79 VRB3      29.97R
DEER PARK      CLOUDY    36  34  92 CALM      29.97R
$$

WAZ029>033-281000-
SOUTHEAST WASHINGTON

CITY           SKY/WX    TMP DP  RH WIND       PRES   REMARKS
PULLMAN        CLOUDY    41  32  70 SW15      30.01R
LEWISTON, ID   CLOUDY    45  34  65 S7        30.02R
WALLA WALLA    PTCLDY    44  36  73 S13       30.09R
PENDLETON, OR  CLEAR     42  33  70 W23G33    30.08R
$$




USA.gov is the U.S. government's official web portal to all federal, state and local government web resources and services.